Oskaloosa, IA

5:44 PM CDT on October 18, 2017 (GMT -0500)
Oskaloosa Municipal

Weather History for KOOA - October, 2012

Change the Weather History Date:

Thursday, October 4, 2012

  Actual Average (KOTM) Record (KOTM)
Temperature  
Mean Temperature 50 °F -  
Max Temperature 58 °F 68 °F 96 °F (1938)
Min Temperature 42 °F 46 °F 23 °F (1935)
Degree Days  
Heating Degree Days 14    
Moisture  
Dew Point 39 °F    
Average Humidity 64    
Maximum Humidity 78    
Minimum Humidity 38    
Precipitation  
Precipitation 0.01 in - - ()
Sea Level Pressure  
Sea Level Pressure 30.11 in    
Wind  
Wind Speed 8 mph (WNW)    
Max Wind Speed 16 mph    
Max Gust Speed 23 mph    
Visibility 10 miles    
Events Rain    
Averages and records for this station are not official NWS values.
T = Trace of Precipitation, MM = Missing Value Source: NWS Daily Summary

Daily Weather History Graph

Daily Weather History Graph

Search for Another Location

Airport or City:

Trip Planner

Search our weather history database for the weather conditions in past years. The results will help you decide how hot, cold, wet, or windy it might be!

Date:

Astronomy

Oct. 04, 2012 Rise Set
Actual Time 7:10 AM CDT 6:45 PM CDT
Civil Twilight 6:42 AM CDT 7:13 PM CDT
Nautical Twilight 6:10 AM CDT 7:45 PM CDT
Astronomical Twilight 5:38 AM CDT 8:17 PM CDT
Moon 9:19 PM CDT (10/4) 11:30 AM CDT (10/4)
Length of Visible Light 12h 30m
Length of Day
11h 35m
Waning Gibbous, 82% of the Moon is Illuminated
Oct 4
Waning Gibbous
Oct 8
Last Quarter
Oct 15
New
Oct 21
First Quarter
Oct 29
Full

Hourly Weather History & Observations

Time (CDT) Temp. Windchill Dew Point Humidity Pressure Visibility Wind Dir Wind Speed Gust Speed Precip Events Conditions
12:15 AM 55.4 °F - 45.0 °F 68% 29.98 in 10.0 mi South 5.8 mph - N/A   Clear
12:35 AM 55.0 °F - 45.5 °F 70% 29.99 in 10.0 mi South 5.8 mph - N/A   Clear
12:55 AM 54.5 °F - 45.5 °F 72% 29.99 in 10.0 mi South 5.8 mph - N/A   Clear
1:15 AM 53.6 °F - 45.7 °F 75% 29.99 in 10.0 mi South 5.8 mph - N/A   Clear
1:35 AM 54.1 °F - 46.4 °F 75% 29.99 in 10.0 mi South 6.9 mph - N/A   Clear
1:55 AM 54.5 °F - 46.9 °F 76% 29.99 in 10.0 mi South 5.8 mph - N/A   Clear
2:15 AM 54.0 °F - 47.3 °F 78% 29.99 in 10.0 mi South 6.9 mph - N/A   Clear
2:35 AM 54.5 °F - 47.8 °F 78% 29.99 in 10.0 mi South 6.9 mph - N/A   Clear
2:55 AM 54.9 °F - 48.2 °F 78% 29.98 in 10.0 mi South 6.9 mph - N/A   Clear
3:15 AM 55.6 °F - 48.6 °F 77% 29.98 in 10.0 mi South 6.9 mph - N/A   Clear
3:35 AM 56.8 °F - 49.1 °F 75% 29.97 in 10.0 mi South 5.8 mph - N/A   Mostly Cloudy
3:55 AM 56.7 °F - 49.1 °F 76% 29.97 in 10.0 mi South 5.8 mph - N/A   Mostly Cloudy
4:15 AM 56.3 °F - 49.1 °F 77% 29.97 in 10.0 mi South 6.9 mph - N/A   Scattered Clouds
4:35 AM 56.3 °F - 48.7 °F 76% 29.97 in 10.0 mi South 6.9 mph - N/A   Clear
4:55 AM 56.1 °F - 48.4 °F 75% 29.96 in 10.0 mi SSE 6.9 mph - N/A   Clear
5:15 AM 56.1 °F - 48.4 °F 75% 29.97 in 10.0 mi South 5.8 mph - N/A   Clear
5:35 AM 57.0 °F - 48.4 °F 73% 29.98 in 10.0 mi SSW 6.9 mph - N/A   Scattered Clouds
5:55 AM 57.7 °F - 48.4 °F 71% 30.00 in 10.0 mi WSW 5.8 mph - N/A   Clear
6:15 AM 57.2 °F - 48.2 °F 72% 30.00 in 10.0 mi WSW 6.9 mph - N/A   Clear
6:35 AM 57.7 °F - 48.4 °F 71% 30.02 in 10.0 mi West 10.4 mph - N/A   Clear
6:55 AM 53.4 °F - 41.2 °F 63% 30.04 in 7.0 mi WNW 12.7 mph 16.1 mph N/A   Clear
7:15 AM 52.3 °F - 40.1 °F 63% 30.05 in 10.0 mi NW 10.4 mph 18.4 mph N/A   Clear
7:35 AM 52.7 °F - 40.1 °F 62% 30.06 in 10.0 mi NW 10.4 mph 17.3 mph N/A   Scattered Clouds
7:55 AM 52.3 °F - 40.6 °F 64% 30.05 in 10.0 mi NW 10.4 mph - N/A Rain Light Rain
8:15 AM 50.5 °F - 42.3 °F 73% 30.06 in 10.0 mi NW 9.2 mph 17.3 mph N/A Rain Light Rain
8:35 AM 51.1 °F - 42.4 °F 72% 30.07 in 10.0 mi WNW 8.1 mph - N/A   Clear
8:55 AM 52.9 °F - 42.4 °F 68% 30.09 in 10.0 mi WNW 10.4 mph 16.1 mph N/A   Scattered Clouds
9:15 AM 52.0 °F - 41.5 °F 68% 30.10 in 10.0 mi WNW 10.4 mph 16.1 mph N/A   Scattered Clouds
9:35 AM 52.9 °F - 41.0 °F 64% 30.10 in 10.0 mi NW 15.0 mph 20.7 mph N/A   Scattered Clouds
9:55 AM 52.5 °F - 41.4 °F 66% 30.12 in 10.0 mi NW 16.1 mph 19.6 mph N/A   Scattered Clouds
10:15 AM 51.8 °F - 40.5 °F 65% 30.11 in 10.0 mi NW 15.0 mph 23.0 mph N/A   Scattered Clouds
10:35 AM 51.8 °F - 40.1 °F 64% 30.11 in 10.0 mi NW 11.5 mph 18.4 mph N/A   Scattered Clouds
10:55 AM 51.8 °F - 39.2 °F 62% 30.11 in 10.0 mi NW 12.7 mph 17.3 mph N/A   Scattered Clouds
11:15 AM 52.3 °F - 39.6 °F 62% 30.12 in 10.0 mi NW 12.7 mph 18.4 mph N/A   Scattered Clouds
11:35 AM 52.7 °F - 39.9 °F 62% 30.15 in 10.0 mi WNW 13.8 mph - N/A   Scattered Clouds
11:55 AM 50.7 °F - 40.8 °F 69% 30.14 in 10.0 mi WNW 12.7 mph 19.6 mph N/A Rain Light Rain
12:15 PM 50.4 °F - 40.1 °F 68% 30.19 in 10.0 mi West 15.0 mph 20.7 mph N/A Rain Light Rain
12:35 PM 50.4 °F - 39.6 °F 66% 30.19 in 10.0 mi WNW 16.1 mph 20.7 mph N/A Rain Light Rain
12:55 PM 48.6 °F - 40.6 °F 74% 30.17 in 10.0 mi WNW 10.4 mph 16.1 mph 0.01 in Rain Light Rain
1:35 PM 48.9 °F - 40.3 °F 72% 30.14 in 10.0 mi NNW 10.4 mph - N/A Rain Light Rain
1:55 PM 50.0 °F - 38.5 °F 65% 30.17 in 10.0 mi NW 15.0 mph 20.7 mph N/A   Mostly Cloudy
2:15 PM 49.3 °F - 37.9 °F 65% 30.18 in 10.0 mi WNW 13.8 mph 19.6 mph N/A Rain Light Rain
2:35 PM 49.5 °F - 38.1 °F 65% 30.17 in 10.0 mi NW 12.7 mph 17.3 mph N/A   Overcast
2:55 PM 49.5 °F - 36.7 °F 61% 30.17 in 10.0 mi NW 10.4 mph 18.4 mph N/A   Overcast
3:15 PM 50.2 °F - 36.1 °F 59% 30.18 in 10.0 mi NW 12.7 mph 18.4 mph N/A   Overcast
3:35 PM 50.9 °F - 35.8 °F 56% 30.18 in 10.0 mi WNW 8.1 mph 17.3 mph N/A   Overcast
3:55 PM 51.4 °F - 36.1 °F 56% 30.18 in 10.0 mi WNW 8.1 mph - N/A   Overcast
4:15 PM 53.4 °F - 36.5 °F 53% 30.17 in 10.0 mi NW 5.8 mph - N/A   Mostly Cloudy
4:35 PM 55.6 °F - 34.9 °F 46% 30.17 in 10.0 mi NNW 11.5 mph 17.3 mph N/A   Scattered Clouds
4:55 PM 58.5 °F - 34.3 °F 40% 30.17 in 10.0 mi NW 10.4 mph 17.3 mph N/A   Clear
5:15 PM 58.1 °F - 32.7 °F 38% 30.17 in 10.0 mi WNW 12.7 mph 19.6 mph N/A   Clear
5:35 PM 57.4 °F - 32.2 °F 39% 30.17 in 10.0 mi WNW 11.5 mph 17.3 mph N/A   Clear
5:55 PM 56.7 °F - 32.2 °F 40% 30.18 in 10.0 mi WNW 10.4 mph - N/A   Clear
6:15 PM 54.5 °F - 32.0 °F 42% 30.18 in 10.0 mi NW 6.9 mph - N/A   Clear
6:35 PM 52.9 °F - 32.0 °F 45% 30.18 in 10.0 mi NW 4.6 mph - N/A   Clear
6:55 PM 51.3 °F - 32.0 °F 48% 30.19 in 10.0 mi NW 5.8 mph - N/A   Clear
7:15 PM 49.1 °F - 32.0 °F 52% 30.19 in 10.0 mi NW 4.6 mph - N/A   Clear
7:35 PM 46.0 °F 43.9 °F 32.0 °F 58% 30.19 in 10.0 mi NW 4.6 mph - N/A   Clear
7:55 PM 45.0 °F 41.8 °F 32.0 °F 60% 30.19 in 10.0 mi NW 5.8 mph - N/A   Clear
8:15 PM 45.3 °F 44.0 °F 32.0 °F 60% 30.20 in 10.0 mi WNW 3.5 mph - N/A   Clear
8:35 PM 43.3 °F 39.9 °F 31.8 °F 64% 30.21 in 7.0 mi WNW 5.8 mph - N/A   Clear
8:55 PM 43.5 °F 39.4 °F 32.0 °F 64% 30.22 in 10.0 mi NW 6.9 mph - N/A   Clear
9:15 PM 45.5 °F 41.8 °F 32.0 °F 59% 30.22 in 10.0 mi NW 6.9 mph - N/A   Clear
9:35 PM 46.6 °F - 32.0 °F 57% 30.21 in 10.0 mi NNW 5.8 mph - N/A   Clear
9:55 PM 48.2 °F - 32.0 °F 54% 30.22 in 10.0 mi NNW 10.4 mph 16.1 mph N/A   Clear
10:15 PM 48.6 °F - 31.8 °F 52% 30.21 in 10.0 mi NNW 9.2 mph - N/A   Clear
10:35 PM 47.7 °F - 31.6 °F 54% 30.22 in 10.0 mi NNW 5.8 mph - N/A   Clear
10:55 PM 45.9 °F 42.9 °F 31.6 °F 58% 30.20 in 10.0 mi NNW 5.8 mph - N/A   Clear
11:15 PM 45.0 °F 43.5 °F 31.6 °F 60% 30.22 in 10.0 mi NW 3.5 mph - N/A   Clear
11:35 PM 43.5 °F 41.9 °F 32.0 °F 64% 30.23 in 10.0 mi WNW 3.5 mph - N/A   Clear
11:55 PM 42.8 °F 40.1 °F 32.0 °F 66% 30.25 in 10.0 mi NW 4.6 mph - N/A   Clear